#timestamp,LO_Frequency,Hit,StdDev 
1549875615.8,286046996.0,N
1549875635.6,286046993.9,N
1549875655.5,286046997.7,N
1549875675.3,286046998.5,N
1549875695.1,286046998.2,N
1549875715.9,286047002.3,N
1549875735.7,286047008.3,N
1549875755.6,286047015.5,Y
1549875775.4,286047016.9,P
1549875795.2,286047017.3,N
1549875815.1,286047016.6,N
1549875816.0,286047016.6,N
1549875835.8,286047013.5,N
1549875855.7,286047003.3,N
1549875875.5,286047003.4,N
1549875895.3,286047007.0,N
1549875915.2,286047007.2,N
1549875935.0,286047007.8,N
1549875935.9,286047007.8,N
1549875955.7,286047006.2,N
1549875975.6,286047006.7,N
1549875995.4,286047007.0,N
1549876015.3,286047006.1,N
1549876035.1,286047007.5,N
1549876036.0,286047007.5,N
1549876055.8,286047010.8,N
1549876075.7,286047005.8,N
1549876095.5,286047005.0,N
1549876115.3,286047003.4,N
1549876135.2,286047003.5,N
1549876155.0,286047000.2,N
1549876155.9,286047000.2,N
1549876175.8,286047002.5,N
1549876195.6,286047002.0,N
1549876215.4,286047002.1,N
1549876235.3,286047001.5,N
1549876255.1,286047009.0,N
1549876275.9,286047008.6,N
1549876295.7,286047003.8,N
1549876315.5,286047007.0,N
1549876335.4,286047004.7,N
1549876355.2,286047006.3,N
1549876375.0,286047004.6,N
1549876376.0,286047004.6,N
1549876395.8,286047007.6,N
1549876415.6,286047005.0,N
1549876435.5,286047008.9,Y
1549876455.3,286047003.4,P
1549876475.1,286047000.7,N
1549876495.9,286046999.2,N
1549876515.7,286046997.9,N
1549876535.6,286046997.0,N
1549876555.4,286046999.1,N
1549876575.2,286046997.7,N
1549876595.1,286046998.4,N
1549876596.0,286046998.4,N
1549876615.8,286047000.8,N
1549876635.7,286046998.5,N
1549876655.5,286047000.1,N
1549876675.3,286047002.1,N
1549876695.2,286047004.4,N
1549876715.0,286047005.2,N
1549876715.9,286047005.2,N
1549876735.7,286047003.6,N
1549876755.6,286046999.9,N
1549876775.4,286046999.4,N
1549876795.3,286046998.1,N
1549876815.1,286046997.0,N
1549876816.0,286046997.0,N
1549876835.8,286046993.0,N
1549876855.7,286046991.5,N
1549876875.5,286046992.3,N
1549876895.4,286046989.1,N
1549876915.2,286046988.3,N
1549876935.0,286046981.2,Y
1549876935.9,286046981.2,P
1549876955.8,286046981.2,N
1549876975.6,286046982.9,N
1549876995.4,286046983.2,N
1549877015.3,286046983.8,N
1549877035.1,286046986.2,N
1549877055.9,286046990.5,N
1549877075.7,286046991.8,N
1549877095.5,286046990.5,N
1549877115.4,286046990.5,N
1549877135.2,286046989.9,N
1549877155.1,286046987.4,N
1549877156.0,286046987.4,N
1549877175.8,286046985.6,Y
1549877195.6,286046993.8,P
1549877215.5,286046994.0,N
1549877235.3,286046995.2,N
1549877255.1,286046996.9,N
1549877275.9,286047000.1,N
1549877295.7,286047000.2,N
1549877315.6,286046999.0,N
1549877335.4,286046998.1,N
1549877355.2,286046997.3,N
1549877375.1,286046996.7,N
1549877376.0,286046996.7,N
1549877395.8,286046996.5,N
1549877415.7,286047000.1,N
1549877435.5,286047003.8,N
1549877455.3,286047009.8,N
1549877475.2,286047011.2,N
1549877495.0,286047010.5,N
1549877495.9,286047010.5,N
1549877515.8,286047012.2,N
1549877535.6,286047009.8,N
1549877555.4,286047010.3,N
1549877575.3,286047007.1,N
1549877595.1,286047005.6,N
1549877615.8,286047000.5,N
1549877635.7,286046999.2,N
1549877655.5,286046996.2,N
1549877675.4,286047000.4,N
1549877695.2,286047004.4,N
1549877715.0,286047003.2,N
1549877715.9,286047003.2,N
1549877735.8,286047002.6,N
1549877755.6,286046998.8,N
1549877775.4,286047000.5,N
1549877795.3,286047006.5,N
1549877815.1,286047005.1,N
1549877835.9,286047008.1,N
1549877855.7,286047007.8,N
1549877875.5,286047007.6,N
1549877895.4,286047005.6,N
1549877915.2,286047001.6,N
1549877935.1,286047000.9,N
1549877936.0,286047000.9,N
1549877955.8,286046997.2,N
1549877975.6,286046996.6,N
1549877995.5,286046999.0,N
1549878015.3,286046996.8,N
1549878035.1,286046994.6,N
1549878055.9,286046991.9,N
1549878075.7,286046993.2,N
1549878095.6,286046989.4,N
1549878115.4,286046987.0,N
1549878135.2,286046988.1,N
1549878155.1,286046987.7,N
1549878156.0,286046987.7,N
1549878175.8,286046989.8,N
1549878195.7,286046987.5,N
1549878215.5,286046987.6,N
1549878235.3,286046984.1,N
1549878255.2,286046984.6,N
1549878275.0,286046986.6,N
1549878275.9,286046986.6,N
1549878295.8,286046984.2,N
1549878315.6,286046986.8,N
1549878335.4,286046982.1,N
1549878355.3,286046984.6,N
1549878375.1,286046984.2,N
1549878395.8,286046980.8,N
1549878415.7,286046982.0,N
1549878435.5,286046981.4,N
1549878455.4,286046979.3,Y
1549878475.2,286046990.6,P
1549878495.0,286046993.3,P
1549878496.0,286046993.3,P
1549878515.8,286046997.7,N
1549878535.6,286047005.4,N
1549878555.5,286047002.9,N
1549878575.3,286047005.2,N
1549878595.2,286047005.1,N
1549878615.9,286047002.8,N
1549878635.7,286047008.8,N
1549878655.6,286047006.3,N
1549878675.4,286047005.9,N
1549878695.2,286047003.2,N
1549878715.1,286047000.7,N
1549878716.0,286047000.7,N
1549878735.8,286046995.7,N
1549878755.7,286046991.7,N
1549878775.5,286046993.0,N
1549878795.3,286046989.4,N
1549878815.2,286046982.7,N
1549878835.0,286046981.7,N
1549878835.9,286046981.7,N
1549878855.8,286046976.2,N
1549878875.6,286046974.6,N
1549878895.5,286046975.7,N
1549878915.3,286046978.5,N
1549878935.1,286046974.7,N
1549878955.9,286046971.0,N
1549878975.7,286046972.1,N
1549878995.6,286046969.8,N
1549879015.4,286046973.3,N
1549879035.2,286046975.2,N
1549879055.1,286046976.9,N
1549879056.0,286046976.9,N
1549879075.8,286046978.6,N
1549879095.7,286046980.0,N
1549879115.5,286046984.0,N
1549879135.3,286046984.3,N
1549879155.2,286046981.0,N
1549879175.0,286046984.7,N
1549879175.9,286046984.7,N
1549879195.8,286046984.8,N
